User: anonymous   Login
Location: Unspecified
(0.0000°N, 0.0000°E)
Time: 11:50:49
(UTC+00:00)
Language:

MUOS 2 - Orbit

View from above orbital plane
View from above orbital plane
View from above satellite
View from above satellite

Ground track
Ground track

The orbit data is extracted from the following two-line orbital elements,

1 39206U 13036A   17294.12723738 0.00000000  00000-0  00000-0 0    02
2 39206   3.5094 335.5590 0052934   0.1346 359.8932  1.00270000    09
Epoch (UTC): 21 October 2017 03:03:13
Eccentricity: 0.0052934
inclination: 3.5094°
perigee height: 35563 km
apogee height: 36010 km
right ascension of ascending node: 335.5590°
argument of perigee: 0.1346°
revolutions per day: 1.00270000
mean anomaly at epoch: 359.8932°
orbit number at epoch: 0

The dashed part of the orbit path shows where the satellite is in the earth's shadow,  

DLR